Stations météo

réclame
Mon MeteoGroup
Elphin, Grande-Bretagne (99153): Température de l'air & dewpoint: 19.04.2019 15:00:00 - 25.04.2019 15:00:00 (BST)Elphin, Grande-Bretagne (99153): Quantités de précipitations: 19.04.2019 15:00:00 - 25.04.2019 15:00:00 (BST)
Date & Time tt [°C] td [°C] rr [mm]
25.04.2019 15:00:00 - - -
25.04.2019 14:00:00 - - -
25.04.2019 13:00:00 14,5 6,9 0,0
25.04.2019 12:00:00 12,0 9,6 0,0
25.04.2019 11:00:00 10,3 9,3 0,0
25.04.2019 10:00:00 10,7 10,2 -
25.04.2019 09:00:00 9,1 8,8 0,2
25.04.2019 08:00:00 8,3 8,1 0,0
25.04.2019 07:00:00 7,9 7,8 0,0
25.04.2019 06:00:00 7,8 7,6 0,0
25.04.2019 05:00:00 7,8 7,6 0,0
25.04.2019 04:00:00 7,8 7,5 0,0
25.04.2019 03:00:00 7,8 7,4 0,0
25.04.2019 02:00:00 7,8 7,4 0,0
25.04.2019 01:00:00 7,9 7,2 0,0
25.04.2019 00:00:00 7,9 7,5 0,0
24.04.2019 23:00:00 8,1 7,4 0,0
24.04.2019 22:00:00 8,3 7,1 0,0
24.04.2019 21:00:00 8,5 7,2 0,0
24.04.2019 20:00:00 9,0 7,4 0,0
24.04.2019 19:00:00 9,4 7,6 0,0
24.04.2019 18:00:00 9,6 7,7 0,0
24.04.2019 17:00:00 11,1 7,7 0,0
24.04.2019 16:00:00 10,7 7,8 0,0
24.04.2019 15:00:00 10,0 7,4 0,0
24.04.2019 14:00:00 10,8 7,4 0,0
24.04.2019 13:00:00 11,5 7,0 0,0
24.04.2019 12:00:00 12,3 7,2 0,0
24.04.2019 11:00:00 11,6 6,6 0,0
24.04.2019 10:00:00 11,0 6,6 0,0
24.04.2019 09:00:00 9,5 6,5 0,0
24.04.2019 08:00:00 8,2 5,8 0,0
24.04.2019 07:00:00 6,9 5,5 0,0
24.04.2019 06:00:00 6,8 5,6 0,0
24.04.2019 05:00:00 6,5 5,3 0,0
24.04.2019 04:00:00 6,8 5,4 0,0
24.04.2019 03:00:00 7,2 5,6 0,0
24.04.2019 02:00:00 7,6 5,4 0,0
24.04.2019 01:00:00 8,4 5,2 0,0
24.04.2019 00:00:00 8,4 4,9 0,0
23.04.2019 23:00:00 8,5 5,3 0,0
23.04.2019 22:00:00 9,0 5,6 0,0
23.04.2019 21:00:00 9,6 5,8 0,0
23.04.2019 20:00:00 10,3 6,3 0,0
23.04.2019 19:00:00 11,9 6,5 0,0
23.04.2019 18:00:00 13,4 5,8 0,0
23.04.2019 17:00:00 14,1 5,0 0,0
23.04.2019 16:00:00 14,9 5,9 0,0
23.04.2019 15:00:00 15,7 6,8 0,0
23.04.2019 14:00:00 15,9 7,6 0,0
23.04.2019 13:00:00 16,7 6,9 0,0
23.04.2019 12:00:00 14,6 7,5 0,0
23.04.2019 11:00:00 11,7 7,4 0,0
23.04.2019 10:00:00 10,7 6,3 0,0
23.04.2019 09:00:00 9,8 5,8 0,0
23.04.2019 08:00:00 9,1 5,7 0,0
23.04.2019 07:00:00 8,9 5,4 0,0
23.04.2019 06:00:00 8,4 5,2 0,0
23.04.2019 05:00:00 7,5 4,2 0,0
23.04.2019 04:00:00 7,9 3,5 0,0
23.04.2019 03:00:00 7,5 3,3 0,0
23.04.2019 02:00:00 9,8 2,7 0,0
23.04.2019 01:00:00 11,6 2,5 0,0
23.04.2019 00:00:00 11,6 2,6 0,0
22.04.2019 23:00:00 11,2 1,3 0,0
22.04.2019 22:00:00 11,0 3,5 0,0
22.04.2019 21:00:00 14,1 3,9 0,0
22.04.2019 20:00:00 17,9 5,5 0,0
22.04.2019 19:00:00 19,9 4,5 0,0
22.04.2019 18:00:00 20,8 4,4 0,0
22.04.2019 17:00:00 21,5 3,1 0,0
22.04.2019 16:00:00 21,6 4,2 0,0
22.04.2019 15:00:00 20,7 2,7 0,0
22.04.2019 14:00:00 21,5 3,9 0,0
22.04.2019 13:00:00 20,8 3,5 0,0
22.04.2019 12:00:00 20,5 2,4 0,0
22.04.2019 11:00:00 19,5 3,5 0,0
22.04.2019 10:00:00 18,5 4,9 0,0
22.04.2019 09:00:00 15,9 6,7 0,0
22.04.2019 08:00:00 13,4 7,0 0,0
22.04.2019 07:00:00 11,3 7,1 0,0
22.04.2019 06:00:00 11,1 7,0 0,0
22.04.2019 05:00:00 11,3 7,8 0,0
22.04.2019 04:00:00 10,5 8,0 0,0
22.04.2019 03:00:00 11,3 8,4 0,0
22.04.2019 02:00:00 13,2 9,0 0,0
22.04.2019 01:00:00 14,1 10,0 0,0
22.04.2019 00:00:00 14,5 9,8 0,0
21.04.2019 23:00:00 13,6 9,8 0,0
21.04.2019 22:00:00 14,1 9,8 0,0
21.04.2019 21:00:00 15,0 9,6 0,0
21.04.2019 20:00:00 16,4 9,8 0,0
21.04.2019 19:00:00 15,1 11,1 0,0
21.04.2019 18:00:00 17,5 10,2 0,0
21.04.2019 17:00:00 17,7 10,9 0,0
21.04.2019 16:00:00 17,7 11,6 0,0
21.04.2019 15:00:00 17,4 12,2 0,0
21.04.2019 14:00:00 17,7 11,8 0,0
21.04.2019 13:00:00 18,3 13,1 0,0
21.04.2019 12:00:00 16,5 12,4 0,0
21.04.2019 11:00:00 16,2 15,0 0,0
21.04.2019 10:00:00 11,3 11,3 0,0
21.04.2019 09:00:00 9,9 9,9 0,0
21.04.2019 08:00:00 9,0 8,9 0,4
21.04.2019 07:00:00 8,7 8,7 0,2
21.04.2019 06:00:00 8,7 8,6 0,2
21.04.2019 05:00:00 8,7 8,6 0,2
21.04.2019 04:00:00 8,7 8,6 0,0
21.04.2019 03:00:00 8,8 8,7 0,2
21.04.2019 02:00:00 8,8 8,6 0,8
21.04.2019 01:00:00 9,0 8,7 1,0
21.04.2019 00:00:00 9,0 8,7 1,6
20.04.2019 23:00:00 9,5 8,9 0,0
20.04.2019 22:00:00 9,7 9,1 0,0
20.04.2019 21:00:00 9,8 9,3 0,0
20.04.2019 20:00:00 10,0 9,5 0,4
20.04.2019 19:00:00 10,4 9,7 0,4
20.04.2019 18:00:00 10,6 9,5 0,2
20.04.2019 17:00:00 11,1 9,3 0,0
20.04.2019 16:00:00 11,8 8,7 0,0
20.04.2019 15:00:00 12,4 8,8 0,0
20.04.2019 14:00:00 12,5 8,7 0,0
20.04.2019 13:00:00 13,2 9,3 0,0
20.04.2019 12:00:00 12,0 9,0 0,0
20.04.2019 11:00:00 11,8 9,1 0,0
20.04.2019 10:00:00 11,2 8,6 0,0
20.04.2019 09:00:00 11,5 9,0 0,0
20.04.2019 08:00:00 10,4 9,1 0,0
20.04.2019 07:00:00 10,1 8,9 0,0
20.04.2019 06:00:00 10,1 9,0 0,0
20.04.2019 05:00:00 9,9 8,7 0,0
20.04.2019 04:00:00 10,3 8,4 0,0
20.04.2019 03:00:00 12,2 7,9 0,0
20.04.2019 02:00:00 9,5 6,4 0,0
20.04.2019 01:00:00 10,4 5,2 0,0
20.04.2019 00:00:00 13,7 5,6 0,0
19.04.2019 23:00:00 9,4 4,8 0,0
19.04.2019 22:00:00 10,8 5,3 0,0
19.04.2019 21:00:00 13,8 4,8 0,0
19.04.2019 20:00:00 17,2 5,0 0,0
19.04.2019 19:00:00 17,8 5,4 0,0
19.04.2019 18:00:00 17,9 7,7 0,0
19.04.2019 17:00:00 18,6 6,8 0,0
19.04.2019 16:00:00 19,2 7,0 0,0
19.04.2019 15:00:00 20,8 5,5 0,0

tt = Température de l'air
td = dewpoint
rr = Quantités de précipitations

stations d'obs. à proximité